Weather History for Langara Island, BC

Change the Weather History Date:

Tuesday, January 1, 2013

  Actual Average Record
Temperature  
Mean Temperature 40 °F -  
Max Temperature 44 °F - - ()
Min Temperature 37 °F - - ()
Degree Days  
Heating Degree Days 24    
Moisture  
Dew Point 38 °F    
Average Humidity 85    
Maximum Humidity 94    
Minimum Humidity 69    
Precipitation  
Precipitation 0.00 in - - ()
Sea Level Pressure  
Sea Level Pressure 30.01 in    
Wind  
Wind Speed 12 mph ()    
Max Wind Speed 21 mph    
Max Gust Speed 37 mph    
T = Trace of Precipitation, MM = Missing Value Source: Averaged Metar Reports

Daily Weather History Graph

Daily Weather History Graph

Search for Another Location

Airport:

Trip Planner

Search our weather history database for the weather conditions in past years. The results will help you decide how hot, cold, wet, or windy it might be!

Date:

Astronomy

Jan. 01, 2013 Rise Set
Actual Time 9:12 AM PST 4:39 PM PST
Civil Twilight 8:28 AM PST 5:23 PM PST
Nautical Twilight 7:42 AM PST 6:09 PM PST
Astronomical Twilight 6:59 AM PST 6:53 PM PST
Moon 10:06 PM PST (1/1) 10:44 AM PST (1/1)
Length of Visible Light 8h 54m
Length of Day
7h 27m
Waning Gibbous, 82% of the Moon is Illuminated
Jan 1
Waning Gibbous
Jan 4
Last Quarter
Jan 11
New
Jan 18
First Quarter
Jan 26
Full

Hourly Weather History & Observations

Time (PST) Temp. Windchill Dew Point Humidity Pressure Visibility Wind Dir Wind Speed Gust Speed Precip Events Conditions
12:00 AM 39.4 °F 31.4 °F 34.2 °F 82% 30.22 in - SSE 13.8 mph 25.3 mph N/A   Unknown
1:00 AM 39.4 °F 32.3 °F 34.7 °F 83% 30.23 in - SSE 11.5 mph 18.4 mph N/A   Unknown
2:00 AM 39.6 °F 31.7 °F 35.4 °F 85% 30.21 in - SSE 13.8 mph 20.7 mph N/A   Unknown
3:00 AM 40.1 °F 32.0 °F 36.7 °F 88% 30.20 in - SSE 15.0 mph 27.6 mph N/A   Unknown
4:00 AM 41 °F - 37 °F 81% 30.18 in - SSE 13.8 mph - -  
4:00 AM 40.6 °F 33.0 °F 37.2 °F 88% 30.18 in - SSE 13.8 mph 25.3 mph N/A   Unknown
5:00 AM 40.8 °F 32.9 °F 37.4 °F 88% 30.14 in - SSE 15.0 mph 27.6 mph N/A   Unknown
6:00 AM 41.7 °F 33.1 °F 37.9 °F 86% 30.12 in - SSE 18.4 mph 33.4 mph N/A   Unknown
7:00 AM 42.3 °F 33.3 °F 37.8 °F 84% 30.06 in - SSE 20.7 mph 36.8 mph N/A   Unknown
8:00 AM 42.6 °F 34.3 °F 37.9 °F 83% 30.03 in - SE 18.4 mph 36.8 mph N/A   Unknown
9:00 AM 42.6 °F 34.9 °F 37.0 °F 81% 30.04 in - SE 16.1 mph 28.8 mph N/A   Unknown
10:00 AM 43 °F - 36 °F 69% 30.02 in - SSE 17.3 mph - -  
10:00 AM 42.8 °F 34.8 °F 36.3 °F 78% 30.02 in - SSE 17.3 mph 34.5 mph N/A   Unknown
11:00 AM 43.0 °F 34.8 °F 36.7 °F 78% 29.97 in - SSE 18.4 mph 34.5 mph N/A   Unknown
12:00 PM 43.7 °F 35.7 °F 37.0 °F 77% 29.98 in - SSE 18.4 mph 34.5 mph N/A   Unknown
1:00 PM 44.2 °F 37.0 °F 37.8 °F 78% 29.96 in - SE 16.1 mph 26.5 mph N/A   Unknown
2:00 PM 44.6 °F 37.2 °F 38.1 °F 78% 29.93 in - SSE 17.3 mph 28.8 mph N/A   Unknown
3:00 PM 44.6 °F 37.8 °F 38.1 °F 78% 29.91 in - SSE 15.0 mph 26.5 mph N/A   Unknown
4:00 PM 43 °F - 39 °F 82% 29.92 in - SSE 9.2 mph - -  
4:00 PM 43.2 °F 37.9 °F 39.4 °F 86% 29.92 in - SSE 9.2 mph - N/A   Unknown
5:00 PM 42.1 °F 36.6 °F 39.6 °F 91% 29.91 in - SE 9.2 mph - N/A   Unknown
6:00 PM 42.1 °F 36.1 °F 40.1 °F 93% 29.88 in - SSE 10.4 mph 18.4 mph N/A   Unknown
7:00 PM 42.1 °F 35.7 °F 40.1 °F 93% 29.88 in - SSE 11.5 mph 19.6 mph N/A   Unknown
8:00 PM 42.3 °F 37.3 °F 40.5 °F 93% 29.87 in - SSE 8.1 mph 18.4 mph N/A   Unknown
9:00 PM 42.3 °F 37.9 °F 40.5 °F 93% 29.87 in - SSE 6.9 mph - N/A   Unknown
10:00 PM 42 °F - 40 °F 92% 29.86 in - SSE 8.1 mph - -  
10:00 PM 42.1 °F 37.1 °F 40.5 °F 94% 29.86 in - SSE 8.1 mph - N/A   Unknown
11:00 PM 41.9 °F 37.5 °F 40.3 °F 94% 29.85 in - SSE 6.9 mph - N/A   Unknown